�������l�o���
Date,Time,MP-1(��Sv/h),MP-2(��Sv/h),MP-3(��Sv/h),MP-4(��Sv/h),MP-5(��Sv/h),MP-6(��Sv/h),MP-7(��Sv/h),MP-8(��Sv/h),����,����(m/s),���J
2020/10/03,00:00,0.672,0.960,0.609,1.166,0.843,0.387,0.674,0.634,���쐼,1.2,��
2020/10/03,00:10,0.670,0.958,0.611,1.168,0.846,0.386,0.674,0.632,�쐼,0.9,��
2020/10/03,00:20,0.671,0.959,0.609,1.171,0.846,0.386,0.672,0.634,�쐼,1.1,��
2020/10/03,00:30,0.671,0.957,0.609,1.166,0.845,0.385,0.674,0.634,�쐼,1.7,��
2020/10/03,00:40,0.673,0.959,0.611,1.169,0.844,0.386,0.672,0.635,��쐼,1.5,��
2020/10/03,00:50,0.671,0.959,0.609,1.168,0.843,0.387,0.671,0.635,��쐼,0.9,��
2020/10/03,01:00,0.672,0.960,0.610,1.169,0.844,0.387,0.673,0.633,��,1.1,��
2020/10/03,01:10,0.669,0.958,0.611,1.166,0.842,0.386,0.672,0.635,��,0.9,��
2020/10/03,01:20,0.672,0.957,0.610,1.169,0.843,0.387,0.674,0.633,�쐼,0.9,��
2020/10/03,01:30,0.670,0.958,0.611,1.166,0.844,0.386,0.673,0.634,���쐼,1.5,��
2020/10/03,01:40,0.672,0.959,0.611,1.168,0.844,0.386,0.674,0.633,�쐼,1.2,��
2020/10/03,01:50,0.670,0.959,0.610,1.168,0.844,0.387,0.672,0.635,�쐼,1.5,��
2020/10/03,02:00,0.671,0.958,0.612,1.169,0.843,0.386,0.672,0.634,�쐼,1.5,��
2020/10/03,02:10,0.670,0.960,0.610,1.168,0.844,0.387,0.673,0.634,�쐼,1.7,��
2020/10/03,02:20,0.671,0.958,0.610,1.170,0.844,0.385,0.673,0.633,�쐼,1.5,��
2020/10/03,02:30,0.670,0.959,0.609,1.168,0.844,0.386,0.672,0.632,�쐼,1.9,��
2020/10/03,02:40,0.670,0.959,0.610,1.169,0.844,0.385,0.674,0.635,�쐼,1.7,��
2020/10/03,02:50,0.670,0.957,0.609,1.170,0.843,0.387,0.673,0.633,��쐼,1.2,��
2020/10/03,03:00,0.669,0.958,0.612,1.169,0.843,0.385,0.672,0.634,��쐼,1.1,��
2020/10/03,03:10,0.672,0.960,0.609,1.166,0.843,0.386,0.674,0.633,��쐼,1.5,��
2020/10/03,03:20,0.671,0.958,0.610,1.169,0.842,0.385,0.671,0.632,��,2.0,��
2020/10/03,03:30,0.670,0.958,0.610,1.168,0.844,0.385,0.674,0.632,��,1.4,��
2020/10/03,03:40,0.671,0.956,0.608,1.168,0.843,0.386,0.674,0.633,��,1.7,��
2020/10/03,03:50,0.670,0.958,0.609,1.169,0.844,0.386,0.671,0.634,��,2.3,��
2020/10/03,04:00,0.672,0.958,0.610,1.168,0.840,0.387,0.675,0.635,��,1.7,��
2020/10/03,04:10,0.670,0.960,0.611,1.168,0.845,0.386,0.673,0.635,��,2.0,��
2020/10/03,04:20,0.672,0.959,0.610,1.169,0.841,0.386,0.672,0.633,��쐼,2.6,��
2020/10/03,04:30,0.672,0.958,0.609,1.167,0.843,0.387,0.673,0.636,��쐼,2.6,��
2020/10/03,04:40,0.671,0.958,0.611,1.167,0.843,0.386,0.673,0.636,��,3.2,��
2020/10/03,04:50,0.670,0.958,0.611,1.169,0.845,0.387,0.672,0.633,��,3.7,��
2020/10/03,05:00,0.670,0.958,0.609,1.169,0.843,0.386,0.673,0.633,��,3.4,��
2020/10/03,05:10,0.671,0.956,0.610,1.167,0.844,0.387,0.673,0.635,��,2.6,��
2020/10/03,05:20,0.671,0.958,0.609,1.166,0.844,0.386,0.673,0.635,��,3.3,��
2020/10/03,05:30,0.671,0.958,0.610,1.170,0.842,0.385,0.674,0.634,��,3.4,��
2020/10/03,05:40,0.671,0.959,0.608,1.170,0.842,0.385,0.672,0.634,��,3.1,��
2020/10/03,05:50,0.671,0.958,0.609,1.170,0.843,0.386,0.672,0.633,��,2.6,��
2020/10/03,06:00,0.671,0.958,0.608,1.169,0.842,0.386,0.674,0.635,��,2.6,��
2020/10/03,06:10,0.670,0.956,0.609,1.169,0.841,0.386,0.675,0.634,��,4.1,��
2020/10/03,06:20,0.671,0.960,0.611,1.170,0.844,0.387,0.674,0.632,��,4.0,��
2020/10/03,06:30,0.672,0.958,0.608,1.170,0.842,0.385,0.673,0.635,��,5.5,��
2020/10/03,06:40,0.672,0.959,0.612,1.169,0.841,0.387,0.674,0.634,��,4.4,��
2020/10/03,06:50,0.672,0.957,0.611,1.170,0.843,0.385,0.674,0.634,��,4.7,��
2020/10/03,07:00,0.672,0.957,0.609,1.168,0.843,0.387,0.673,0.635,��,4.9,��
2020/10/03,07:10,0.673,0.960,0.611,1.168,0.844,0.385,0.674,0.633,��,4.7,��
2020/10/03,07:20,0.671,0.960,0.612,1.172,0.843,0.387,0.675,0.635,��,4.1,��
2020/10/03,07:30,0.674,0.960,0.612,1.169,0.843,0.387,0.673,0.635,��쓌,4.0,��
2020/10/03,07:40,0.672,0.958,0.611,1.169,0.842,0.386,0.673,0.634,��쓌,3.0,��
2020/10/03,07:50,0.673,0.958,0.613,1.171,0.844,0.385,0.674,0.635,��쓌,3.7,��
2020/10/03,08:00,0.671,0.955,0.612,1.171,0.845,0.385,0.673,0.637,�쓌,2.8,��
2020/10/03,08:10,0.674,0.957,0.612,1.169,0.844,0.385,0.672,0.636,�쓌,2.9,��
2020/10/03,08:20,0.674,0.956,0.612,1.169,0.845,0.386,0.672,0.635,�쓌,2.8,��
2020/10/03,08:30,0.674,0.955,0.611,1.169,0.845,0.387,0.672,0.636,��쓌,3.4,��
2020/10/03,08:40,0.672,0.956,0.612,1.170,0.846,0.386,0.673,0.635,��쓌,3.9,��
2020/10/03,08:50,0.672,0.955,0.609,1.170,0.844,0.384,0.672,0.633,��쓌,3.2,��
2020/10/03,09:00,0.671,0.954,0.609,1.169,0.843,0.384,0.671,0.632,�쓌,3.7,��
2020/10/03,09:10,0.671,0.954,0.610,1.171,0.843,0.385,0.673,0.632,��쓌,4.0,��
2020/10/03,09:20,0.671,0.951,0.611,1.170,0.843,0.385,0.671,0.633,��쓌,3.2,��
2020/10/03,09:30,0.672,0.953,0.609,1.172,0.843,0.386,0.672,0.633,��쓌,4.1,��
2020/10/03,09:40,0.669,0.953,0.610,1.170,0.845,0.384,0.673,0.631,��쓌,4.8,��
2020/10/03,09:50,0.672,0.952,0.610,1.170,0.845,0.385,0.673,0.633,��쓌,4.5,��
2020/10/03,10:00,0.673,0.955,0.610,1.172,0.841,0.384,0.673,0.632,��쓌,4.5,��
2020/10/03,10:10,0.671,0.956,0.611,1.172,0.843,0.385,0.673,0.632,��쓌,5.1,��
2020/10/03,10:20,0.672,0.953,0.611,1.170,0.845,0.386,0.674,0.633,��쓌,4.2,��
2020/10/03,10:30,0.673,0.955,0.612,1.172,0.844,0.386,0.675,0.634,��쓌,5.8,��
2020/10/03,10:40,0.673,0.957,0.611,1.167,0.845,0.386,0.674,0.632,��쓌,5.5,��
2020/10/03,10:50,0.673,0.955,0.612,1.172,0.843,0.386,0.673,0.634,��쓌,5.6,��
2020/10/03,11:00,0.673,0.959,0.610,1.169,0.844,0.387,0.673,0.633,��쓌,6.0,��
2020/10/03,11:10,0.672,0.958,0.610,1.170,0.845,0.386,0.674,0.634,��쓌,6.0,��
2020/10/03,11:20,0.673,0.961,0.610,1.169,0.847,0.384,0.674,0.632,��,6.3,��
2020/10/03,11:30,0.674,0.962,0.610,1.169,0.844,0.385,0.673,0.631,��,5.5,��
2020/10/03,11:40,0.672,0.961,0.609,1.171,0.844,0.386,0.675,0.633,��,3.7,��
2020/10/03,11:50,0.673,0.961,0.610,1.170,0.844,0.386,0.672,0.633,��쓌,4.1,��
2020/10/03,12:00,0.674,0.963,0.612,1.171,0.844,0.387,0.674,0.633,��,4.8,��
2020/10/03,12:10,0.672,0.965,0.610,1.169,0.846,0.385,0.674,0.634,��쓌,4.5,��
2020/10/03,12:20,0.672,0.967,0.611,1.171,0.846,0.386,0.673,0.633,��쓌,6.6,��
2020/10/03,12:30,0.674,0.965,0.611,1.170,0.844,0.386,0.673,0.634,��쓌,5.9,��
2020/10/03,12:40,0.674,0.962,0.610,1.171,0.847,0.385,0.673,0.634,��쓌,6.4,��
2020/10/03,12:50,0.671,0.961,0.611,1.170,0.848,0.386,0.674,0.633,��쓌,6.2,��
2020/10/03,13:00,0.672,0.962,0.610,1.171,0.846,0.386,0.674,0.633,��쓌,6.9,��
2020/10/03,13:10,0.671,0.965,0.610,1.174,0.845,0.387,0.675,0.632,��,6.2,��
2020/10/03,13:20,0.673,0.961,0.611,1.172,0.847,0.385,0.674,0.634,��,5.3,��
2020/10/03,13:30,0.673,0.962,0.611,1.170,0.846,0.386,0.674,0.633,��,4.2,��
2020/10/03,13:40,0.674,0.962,0.610,1.172,0.847,0.386,0.673,0.634,��쓌,3.2,��
2020/10/03,13:50,0.672,0.964,0.610,1.171,0.847,0.385,0.674,0.632,��,4.1,��
2020/10/03,14:00,0.673,0.963,0.613,1.172,0.847,0.386,0.675,0.632,��,4.3,��
2020/10/03,14:10,0.672,0.963,0.613,1.172,0.847,0.387,0.676,0.633,��,3.7,��
2020/10/03,14:20,0.671,0.963,0.614,1.172,0.846,0.387,0.674,0.634,��,4.9,��
2020/10/03,14:30,0.672,0.962,0.613,1.171,0.847,0.386,0.675,0.634,��,5.7,��
2020/10/03,14:40,0.674,0.964,0.614,1.173,0.847,0.385,0.675,0.633,��쐼,5.4,��
2020/10/03,14:50,0.672,0.962,0.613,1.173,0.845,0.386,0.674,0.633,��,2.9,��
2020/10/03,15:00,0.672,0.964,0.613,1.173,0.848,0.388,0.675,0.634,��,3.4,��
2020/10/03,15:10,0.673,0.965,0.616,1.174,0.847,0.388,0.675,0.634,��쐼,4.0,��
2020/10/03,15:20,0.672,0.964,0.613,1.171,0.847,0.386,0.673,0.634,��쐼,3.9,��
2020/10/03,15:30,0.674,0.964,0.614,1.173,0.845,0.385,0.674,0.635,��,2.8,�L
2020/10/03,15:40,0.674,0.965,0.614,1.174,0.849,0.386,0.675,0.634,��쓌,1.7,��
2020/10/03,15:50,0.673,0.968,0.615,1.173,0.847,0.386,0.674,0.634,��쐼,1.5,��
2020/10/03,16:00,0.673,0.966,0.616,1.172,0.848,0.387,0.673,0.634,��,0.6,��
2020/10/03,16:10,0.674,0.964,0.613,1.175,0.847,0.386,0.674,0.635,��,1.7,��
2020/10/03,16:20,0.673,0.966,0.613,1.173,0.846,0.386,0.675,0.634,��,2.2,��
2020/10/03,16:30,0.674,0.969,0.613,1.174,0.847,0.386,0.674,0.634,��,0.6,��
2020/10/03,16:40,0.675,0.966,0.615,1.175,0.848,0.383,0.674,0.634,��쓌,2.8,��
2020/10/03,16:50,0.676,0.970,0.614,1.173,0.850,0.387,0.674,0.636,��,2.3,��
2020/10/03,17:00,0.675,0.966,0.614,1.174,0.850,0.387,0.675,0.635,��쐼,2.0,��
2020/10/03,17:10,0.675,0.966,0.615,1.174,0.848,0.388,0.675,0.636,��쐼,2.0,��
2020/10/03,17:20,0.674,0.970,0.616,1.174,0.849,0.386,0.674,0.636,��쐼,2.3,��
2020/10/03,17:30,0.676,0.968,0.615,1.176,0.849,0.386,0.676,0.635,�쐼,1.2,��
2020/10/03,17:40,0.675,0.968,0.616,1.174,0.849,0.388,0.674,0.636,��쐼,1.1,��
2020/10/03,17:50,0.676,0.970,0.615,1.175,0.851,0.389,0.676,0.636,�쐼,1.7,��
2020/10/03,18:00,0.677,0.969,0.614,1.174,0.851,0.388,0.675,0.637,��쐼,2.6,��
2020/10/03,18:10,0.676,0.968,0.615,1.174,0.850,0.389,0.676,0.639,��쐼,3.0,��
2020/10/03,18:20,0.676,0.968,0.615,1.175,0.850,0.389,0.675,0.636,�쐼,3.1,��
2020/10/03,18:30,0.677,0.967,0.615,1.176,0.852,0.389,0.677,0.636,�쐼,3.8,��
2020/10/03,18:40,0.676,0.966,0.615,1.174,0.851,0.389,0.676,0.636,�쐼,3.7,��
2020/10/03,18:50,0.676,0.968,0.614,1.176,0.850,0.390,0.675,0.636,�쐼,3.7,��
2020/10/03,19:00,0.678,0.970,0.614,1.176,0.850,0.389,0.676,0.636,�쐼,2.9,��
2020/10/03,19:10,0.674,0.967,0.615,1.176,0.849,0.388,0.674,0.636,���쐼,3.7,��
2020/10/03,19:20,0.677,0.968,0.614,1.175,0.849,0.389,0.676,0.634,���쐼,4.3,��
2020/10/03,19:30,0.676,0.967,0.614,1.173,0.850,0.386,0.675,0.637,���쐼,4.0,��
2020/10/03,19:40,0.675,0.965,0.614,1.176,0.849,0.388,0.674,0.636,�쐼,4.5,��
2020/10/03,19:50,0.676,0.965,0.614,1.175,0.850,0.390,0.675,0.637,���쐼,4.2,��
2020/10/03,20:00,0.675,0.966,0.615,1.174,0.849,0.390,0.676,0.636,��,3.0,��
2020/10/03,20:10,0.675,0.965,0.615,1.173,0.849,0.389,0.676,0.635,��,2.8,��
2020/10/03,20:20,0.674,0.968,0.614,1.175,0.849,0.388,0.676,0.634,���k��,2.9,��
2020/10/03,20:30,0.675,0.964,0.612,1.175,0.850,0.389,0.675,0.636,�k��,3.3,��
2020/10/03,20:40,0.674,0.966,0.614,1.174,0.849,0.389,0.675,0.636,�k��,2.8,��
2020/10/03,20:50,0.676,0.966,0.613,1.176,0.849,0.389,0.676,0.635,�k��,2.6,��
2020/10/03,21:00,0.677,0.963,0.614,1.173,0.849,0.388,0.675,0.636,�k��,2.9,��
2020/10/03,21:10,0.676,0.966,0.612,1.174,0.849,0.389,0.676,0.636,�k��,2.3,��
2020/10/03,21:20,0.674,0.965,0.615,1.174,0.850,0.389,0.675,0.637,���k��,2.5,��
2020/10/03,21:30,0.673,0.966,0.614,1.173,0.848,0.388,0.676,0.636,��,1.7,��
2020/10/03,21:40,0.673,0.967,0.613,1.176,0.849,0.388,0.675,0.637,�쐼,2.5,��
2020/10/03,21:50,0.674,0.966,0.614,1.176,0.849,0.389,0.674,0.637,�쐼,2.3,��
2020/10/03,22:00,0.674,0.964,0.613,1.175,0.848,0.387,0.675,0.638,��,3.3,��
2020/10/03,22:10,0.674,0.965,0.614,1.176,0.848,0.388,0.675,0.636,��,4.6,��
2020/10/03,22:20,0.676,0.965,0.614,1.176,0.845,0.388,0.675,0.636,��,3.8,��
2020/10/03,22:30,0.675,0.966,0.615,1.175,0.849,0.389,0.677,0.635,��,3.7,��
2020/10/03,22:40,0.676,0.965,0.613,1.177,0.849,0.389,0.676,0.636,��,3.0,��
2020/10/03,22:50,0.675,0.965,0.613,1.173,0.849,0.390,0.675,0.637,��쐼,4.1,��
2020/10/03,23:00,0.675,0.964,0.615,1.176,0.848,0.390,0.676,0.637,��쐼,4.0,��
2020/10/03,23:10,0.672,0.963,0.614,1.176,0.849,0.388,0.675,0.634,��,4.5,��
2020/10/03,23:20,0.675,0.963,0.612,1.174,0.849,0.389,0.676,0.636,��,4.2,��
2020/10/03,23:30,0.675,0.965,0.613,1.174,0.848,0.388,0.675,0.637,��,4.0,��
2020/10/03,23:40,0.674,0.963,0.613,1.175,0.850,0.389,0.676,0.635,��쓌,3.2,��
2020/10/03,23:50,0.676,0.963,0.612,1.174,0.850,0.389,0.675,0.635,��,1.7,��
